FW1542 Weather Reports


Display with metric or nautical units.
time (UTC)temp
F
wind
direction
speed
MPH
gust
MPH
rain 1hr
in
rain 24hr
in
rain mn
in
humidity
%
barometer
mb
20260509150047 74 176 1.0 3.0 0.00 0.05 0.05 97 1011.5
20260509144542 74 194 1.0 3.0 0.00 0.05 0.05 97 1011.3
20260509144540 74 195 1.0 3.0 0.00 0.05 0.05 98 1013.9
20260509143051 73 0 0.0 4.0 0.00 0.05 0.05 97 1011.5
20260509143037 73 150 0.0 2.0 0.00 0.05 0.05 98 1014.1
20260509141546 73 101 0.0 3.0 0.00 0.05 0.05 97 1011.6
20260509141535 73 101 1.0 3.0 0.00 0.05 0.05 97 1014.0
20260509140052 73 0 0.0 1.0 0.00 0.05 0.05 97 1011.0
20260509140042 73 338 0.0 0.0 0.00 0.05 0.05 97 1013.5
20260509134542 73 0 0.0 5.0 0.00 0.05 0.05 97 1010.3
20260509134538 73 338 0.0 5.0 0.00 0.05 0.05 97 1013.0
20260509133041 73 24 1.0 4.0 0.00 0.05 0.05 97 1010.2
20260509133029 73 24 1.0 4.0 0.00 0.05 0.05 98 1012.9
20260509131544 73 145 0.0 6.0 0.05 0.05 0.05 97 1010.3
20260509131532 73 145 0.0 4.0 0.05 0.05 0.05 98 1013.0
20260509130046 73 92 2.0 4.0 0.05 0.05 0.05 97 1011.0
20260509130022 73 92 2.0 4.0 0.05 0.05 0.05 97 1013.4
20260509124543 73 46 1.0 4.0 0.05 0.05 0.05 97 1010.7
20260509124518 73 46 1.0 4.0 0.05 0.05 0.05 98 1013.3
20260509123043 72 0 3.0 6.0 0.05 0.05 0.05 96 1011.0
20260509123017 72 55 3.0 6.0 0.05 0.05 0.05 97 1013.5
20260509121545 72 0 2.0 10.0 0.00 0.00 0.00 96 1011.0
20260509121512 72 41 2.0 10.0 0.00 0.00 0.00 97 1013.7
20260509120052 72 9 2.0 7.0 0.00 0.00 0.00 96 1010.9
20260509120005 72 9 3.0 7.0 0.00 0.00 0.00 96 1013.6
20260509114548 73 38 0.0 3.0 0.00 0.00 0.00 96 1010.4
20260509114504 72 38 0.0 3.0 0.00 0.00 0.00 96 1013.1
20260509113039 73 0 0.0 3.0 0.00 0.00 0.00 96 1010.1
20260509113002 73 38 0.0 3.0 0.00 0.00 0.00 96 1012.7
20260509111558 73 36 0.0 4.0 0.00 0.00 0.00 96 1012.8
20260509111542 73 0 1.0 5.0 0.00 0.00 0.00 96 1010.0
20260509110100 72 38 1.0 5.0 0.00 0.00 0.00 96 1012.6
20260509110045 73 38 1.0 5.0 0.00 0.00 0.00 96 1009.9
20260509104552 73 46 0.0 4.0 0.00 0.00 0.00 96 1012.7
20260509104543 73 0 0.0 4.0 0.00 0.00 0.00 96 1010.0
20260509103046 73 59 0.0 6.0 0.00 0.00 0.00 96 1012.9
20260509103042 73 0 1.0 7.0 0.00 0.00 0.00 96 1010.2
20260509101552 72 60 2.0 5.0 0.00 0.00 0.00 96 1010.0
20260509100048 72 40 0.0 3.0 0.00 0.00 0.00 95 1009.8
20260509100045 72 40 0.0 3.0 0.00 0.00 0.00 96 1012.6
20260509094548 72 39 1.0 5.0 0.00 0.00 0.00 95 1009.3
20260509094543 72 39 0.0 5.0 0.00 0.00 0.00 96 1011.8
20260509093043 72 11 0.0 5.0 0.00 0.00 0.00 95 1009.2
20260509091602 72 0 1.0 6.0 0.00 0.00 0.00 95 1008.8
20260509091549 72 47 1.0 6.0 0.00 0.00 0.00 96 1011.4
20260509090044 72 80 1.0 3.0 0.00 0.00 0.00 96 1011.6
20260509084547 72 175 0.0 2.0 0.00 0.00 0.00 95 1009.0
20260509084545 72 175 0.0 2.0 0.00 0.00 0.00 96 1011.6
20260509083048 72 0 0.0 4.0 0.00 0.00 0.00 95 1009.3
20260509083039 72 178 0.0 4.0 0.00 0.00 0.00 96 1011.8
20260509081543 72 0 1.0 3.0 0.00 0.00 0.00 95 1009.4
20260509081537 72 182 1.0 3.0 0.00 0.00 0.00 95 1011.9
20260509080051 72 146 1.0 11.0 0.00 0.00 0.00 95 1009.5
20260509080040 72 146 1.0 6.0 0.00 0.00 0.00 95 1011.9
20260509074545 72 155 3.0 9.0 0.00 0.00 0.00 95 1009.3
20260509074535 72 165 3.0 9.0 0.00 0.00 0.00 95 1011.9
20260509073114 73 122 4.0 11.0 0.00 0.00 0.00 94 1009.1
20260509073104 73 130 4.0 11.0 0.00 0.00 0.00 95 1011.8
20260509071544 73 140 1.0 9.0 0.00 0.00 0.00 94 1009.4
20260509071532 73 140 2.0 8.0 0.00 0.00 0.00 94 1012.1
20260509070047 73 94 4.0 9.0 0.00 0.00 0.00 94 1009.2
20260509070028 73 94 4.0 9.0 0.00 0.00 0.00 94 1011.9
20260509064543 73 141 3.0 7.0 0.00 0.00 0.00 94 1009.7
20260509064524 73 142 3.0 7.0 0.00 0.00 0.00 94 1012.5
20260509063040 73 115 3.0 7.0 0.00 0.00 0.00 93 1009.6
20260509063026 73 143 4.0 8.0 0.00 0.00 0.00 94 1012.5
20260509061544 73 102 2.0 7.0 0.00 0.00 0.00 93 1009.8
20260509061515 73 108 1.0 7.0 0.00 0.00 0.00 94 1012.8
20260509060058 73 0 2.0 6.0 0.00 0.00 0.00 93 1010.0
20260509060022 73 161 2.0 6.0 0.00 0.00 0.00 93 1012.9
20260509054555 73 130 3.0 7.0 0.00 0.00 0.00 93 1009.9
20260509054511 73 88 3.0 7.0 0.00 0.00 0.00 93 1012.7
20260509053042 73 112 3.0 7.0 0.00 0.00 0.00 92 1010.2
20260509053014 73 107 3.0 7.0 0.00 0.00 0.00 93 1013.0
20260509051541 73 107 1.0 7.0 0.00 0.00 0.00 92 1010.6
20260509051506 73 107 1.0 4.0 0.00 0.00 0.00 93 1013.2
20260509050101 73 151 2.0 5.0 0.00 0.00 0.00 92 1013.2
20260509050050 73 151 2.0 6.0 0.00 0.00 0.00 92 1010.8
20260509044600 72 131 1.0 8.0 0.00 0.00 0.00 92 1013.1
20260509044546 72 131 2.0 8.0 0.00 0.00 0.00 92 1010.5
20260509043059 72 94 2.0 6.0 0.00 0.00 0.00 92 1012.8
20260509043050 72 90 2.0 6.0 0.00 0.00 0.00 91 1010.3
20260509041556 72 119 1.0 4.0 0.00 0.00 0.00 92 1012.9
20260509041544 72 119 1.0 6.0 0.00 0.00 0.00 91 1010.2
20260509040124 72 98 0.0 4.0 0.00 0.00 0.00 91 1012.8
20260509034600 72 104 0.0 4.0 0.00 0.00 0.00 90 1012.4
20260509034548 72 0 0.0 6.0 0.00 0.00 0.00 90 1009.6
20260509033055 73 107 1.0 4.0 0.00 0.00 0.00 90 1011.9
20260509033047 73 107 1.0 4.0 0.00 0.00 0.00 89 1009.1
20260509031558 73 48 2.0 5.0 0.00 0.00 0.00 90 1011.9
20260509031548 73 46 2.0 5.0 0.00 0.00 0.00 89 1009.3
20260509030057 73 107 2.0 7.0 0.00 0.00 0.00 89 1011.9
20260509030049 73 107 1.0 9.0 0.00 0.00 0.00 88 1009.4
20260509024556 74 98 2.0 8.0 0.00 0.00 0.00 88 1011.8
20260509024544 74 86 2.0 8.0 0.00 0.00 0.00 88 1009.2
20260509023053 74 119 2.0 8.0 0.00 0.00 0.00 88 1011.7
20260509023046 74 119 4.0 8.0 0.00 0.00 0.00 87 1009.0
20260509021552 74 70 2.0 6.0 0.00 0.00 0.00 87 1011.7
20260509021548 74 78 2.0 6.0 0.00 0.00 0.00 87 1009.1
20260509020051 74 56 2.0 5.0 0.00 0.00 0.00 85 1008.6
20260509014551 74 48 1.0 4.0 0.00 0.00 0.00 85 1011.0
20260509014544 74 48 1.0 5.0 0.00 0.00 0.00 84 1008.3
20260509013053 75 57 1.0 4.0 0.00 0.00 0.00 84 1010.8
20260509013051 75 57 1.0 4.0 0.00 0.00 0.00 83 1007.9
20260509011558 75 45 2.0 5.0 0.00 0.00 0.00 83 1010.9
20260509011556 75 45 2.0 6.0 0.00 0.00 0.00 82 1008.2
20260509010050 76 73 2.0 6.0 0.00 0.00 0.00 82 1010.7
20260509004605 76 78 2.0 7.0 0.00 0.00 0.00 81 1010.6
20260509003049 77 90 2.0 8.0 0.00 0.00 0.00 80 1010.6
20260509003044 77 49 3.0 9.0 0.00 0.00 0.00 80 1007.9
20260509001547 77 105 4.0 8.0 0.00 0.00 0.00 79 1010.7
20260509001542 77 85 4.0 8.0 0.00 0.00 0.00 79 1007.8
20260509000047 77 32 2.0 4.0 0.00 0.00 0.00 79 1010.8
20260509000042 77 32 2.0 4.0 0.00 0.00 0.00 79 1008.0
20260508234548 77 44 3.0 8.0 0.00 0.00 0.00 79 1008.0
20260508234546 77 48 4.0 7.0 0.00 0.00 0.00 79 1010.8
20260508233045 77 118 4.0 7.0 0.00 0.00 0.00 79 1010.8
20260508233042 77 117 3.0 7.0 0.00 0.00 0.00 78 1008.0
20260508231546 77 18 2.0 7.0 0.00 0.00 0.00 79 1008.2
20260508231544 77 17 2.0 7.0 0.00 0.00 0.00 79 1010.8
20260508230044 77 51 2.0 7.0 0.00 0.00 0.00 78 1008.2
20260508224544 77 53 4.0 9.0 0.00 0.00 0.00 78 1008.0
20260508224541 77 53 4.0 9.0 0.00 0.00 0.00 79 1011.0
20260508223051 77 90 2.0 7.0 0.00 0.00 0.00 78 1008.4
20260508223048 77 94 2.0 7.0 0.00 0.00 0.00 79 1011.1
20260508221543 77 49 2.0 7.0 0.00 0.00 0.00 79 1008.5
20260508221541 77 76 2.0 7.0 0.00 0.00 0.00 79 1011.2
20260508220046 76 160 2.0 8.0 0.00 0.00 0.00 79 1008.6
20260508220036 76 159 3.0 7.0 0.00 0.00 0.00 79 1011.4
20260508214554 76 130 3.0 8.0 0.00 0.00 0.00 80 1008.7
20260508214538 76 109 4.0 8.0 0.00 0.00 0.00 80 1011.6
20260508213044 76 83 3.0 10.0 0.00 0.00 0.00 79 1008.8
20260508213036 76 83 2.0 10.0 0.00 0.00 0.00 79 1011.7
20260508211551 76 153 3.0 8.0 0.00 0.00 0.00 79 1008.9
20260508211534 76 153 2.0 8.0 0.00 0.00 0.00 79 1011.8
20260508210049 76 122 5.0 10.0 0.00 0.00 0.00 79 1009.3
20260508210031 76 122 5.0 10.0 0.00 0.00 0.00 79 1012.1
20260508204545 76 157 3.0 10.0 0.00 0.00 0.00 79 1009.7
20260508204533 76 157 3.0 9.0 0.00 0.00 0.00 80 1012.4
20260508203051 77 156 5.0 10.0 0.00 0.00 0.00 78 1009.8
20260508203029 77 156 3.0 10.0 0.00 0.00 0.00 79 1012.6
20260508201544 77 146 3.0 8.0 0.00 0.00 0.00 78 1009.7
20260508201530 77 146 3.0 8.0 0.00 0.00 0.00 79 1012.5
20260508200045 77 78 3.0 9.0 0.00 0.00 0.00 78 1009.7
20260508200026 77 77 4.0 9.0 0.00 0.00 0.00 78 1012.6
20260508194545 76 98 4.0 9.0 0.00 0.00 0.00 79 1009.8
20260508194521 76 88 4.0 9.0 0.00 0.00 0.00 79 1012.7
20260508193055 76 72 3.0 9.0 0.00 0.00 0.00 79 1009.9
20260508193018 76 73 3.0 9.0 0.00 0.00 0.00 79 1012.9
20260508191544 76 119 3.0 9.0 0.00 0.00 0.00 79 1010.0
20260508191514 76 119 4.0 9.0 0.00 0.00 0.00 80 1012.9
20260508190043 76 70 4.0 9.0 0.00 0.00 0.00 80 1010.1
20260508190008 76 77 5.0 9.0 0.00 0.00 0.00 80 1013.0
20260508184550 75 109 5.0 10.0 0.00 0.00 0.00 80 1010.3
20260508184506 75 127 5.0 10.0 0.00 0.00 0.00 80 1013.4
20260508183047 74 99 5.0 11.0 0.00 0.00 0.00 79 1010.4
20260508183003 74 109 5.0 11.0 0.00 0.00 0.00 79 1013.5
20260508181605 73 138 3.0 9.0 0.00 0.00 0.00 81 1013.8
20260508181555 73 155 3.0 10.0 0.00 0.00 0.00 81 1010.6
20260508180055 72 54 3.0 10.0 0.00 0.00 0.00 82 1014.0
20260508180049 72 116 5.0 10.0 0.00 0.00 0.00 81 1010.8
20260508174555 70 149 3.0 7.0 0.00 0.00 0.00 84 1014.5
20260508174541 70 145 2.0 7.0 0.00 0.00 0.00 84 1011.2
20260508173048 69 144 0.0 6.0 0.00 0.00 0.00 84 1014.6
20260508171546 69 156 2.0 5.0 0.00 0.00 0.00 85 1011.6
20260508170050 68 0 0.0 3.0 0.00 0.00 0.00 85 1011.9
20260508170044 68 48 0.0 1.0 0.00 0.00 0.00 86 1014.8
20260508164548 68 49 1.0 4.0 0.00 0.00 0.00 85 1012.1
20260508164541 68 49 1.0 4.0 0.00 0.00 0.00 86 1014.9
20260508163048 68 11 1.0 4.0 0.00 0.00 0.00 85 1011.9
20260508163046 68 11 2.0 4.0 0.00 0.00 0.00 85 1014.9
20260508161545 67 46 2.0 7.0 0.00 0.00 0.00 86 1012.2
20260508161538 67 46 2.0 7.0 0.00 0.00 0.00 86 1015.1
20260508160121 66 47 2.0 5.0 0.00 0.00 0.00 86 1012.3
20260508160054 66 47 2.0 5.0 0.00 0.00 0.00 87 1015.1
20260508154544 66 69 1.0 5.0 0.00 0.00 0.00 87 1012.5
20260508154529 66 55 1.0 5.0 0.00 0.00 0.00 88 1015.4
20260508153051 65 59 2.0 5.0 0.00 0.00 0.00 87 1012.7
20260508153030 65 60 2.0 5.0 0.00 0.00 0.00 88 1015.8
20260508151553 65 352 0.0 6.0 0.00 0.00 0.00 88 1013.0
20260508151528 65 355 0.0 5.0 0.00 0.00 0.00 88 1016.2